www.pogodaiklimat.ru

Погода и климат >> Архив погоды >> Россия >> Эвенкия >> Стрелка-Чуня


АРХИВ ПОГОДЫ в Стрелке-Чуне

Время (UTC), дата Ветер
(напр.,м/с)
 
Видим.   Явления Облачность Т
(С)
Тd
(С)
f
(%)
Тe
(С)
Тes
(С)
Комфортность P
(гПа)
Po
(гПа)
Тmin
(С)
Tmax
(С)
R
(мм)
R24
(мм)
S
(см)
06 16.08 С 2 50 км 10/10 600 м
[Cb cap]
+15.4 +9.4 67 +15 +15 1019.4 977.4
09 16.08 СВ 2 50 км 10/6 600 м
[Sc Ac trans Cs]
+17.4 +9.4 59 +18 +19 1018.6 976.9
12 16.08 СВ 1 10 км дым ясно +16.0 +8.6 61 +17 +17 1018.5 976.5 +18.4
15 16.08 штиль 0 н/о 10/6 600 м
[Sc Ac trans]
+9.7 +8.0 89 +9 +9 1019.4 976.5
18 16.08 штиль 0 н/о местами туман поземный 4/1 1000 м
[Sc Ac trans]
+3.7 +2.7 93 +3 +3 1020.9 977.0
21 16.08 штиль 0 1000 м дымка 6/0 2000 м
[Ac trans Ci fib]
+7.9 +7.3 96 +7 +7 1020.4 977.2
00 17.08 штиль 0 500 м туман ?/? +8.6 +7.5 93 +8 +8 1019.8 976.8 +3.1
03 17.08 СЗ 1 4000 м дым {ливн. осадки, туман} 10/8 600 м
[Cb cap Ac trans]
+11.4 +10.4 94 +11 +12 1018.6 976.1
06 17.08 СВ 2 10 км дым {ливн. осадки, туман} 9/8 600 м
[Cb cap Ac trans]
+15.8 +10.7 72 +16 +17 1017.2 975.2
09 17.08 С 2 50 км 8/8 600 м
[Cu med, cong]
+18.9 +9.7 55 +20 +21 1014.6 973.2
12 17.08 В 1 50 км 10/10 600 м
[Cb cap]
+16.3 +8.9 62 +17 +17 1015.8 974.1 +20.3 0.3
15 17.08 штиль 0 н/о 10/10 600 м
[Sc]
+10.1 +8.9 92 +9 +9 1017.1 974.3
18 17.08 штиль 0 н/о 10/10 600 м
[Sc]
+7.6 +6.7 94 +7 +7 1017.1 974.0
21 17.08 штиль 0 200 м туман 8/8 600 м
[Sc]
+2.8 +2.3 97 +2 +2 1017.8 973.9
00 18.08 штиль 0 500 м туман 5/3 600 м
[Sc Ac trans]
+3.9 +3.4 97 +3 +4 1017.4 973.7 +0.8
03 18.08 штиль 0 500 м {туман} 10/10 600 м
[Sc]
+9.8 +7.3 84 +9 +9 1016.7 973.9
06 18.08 С 2 4000 м дым {туман} 8/3 600 м
[Sc Ac trans]
+16.4 +6.2 51 +17 +20 1014.5 972.9
09 18.08 СВ 1 4000 м дым {ливн. осадки, туман} 10/8 600 м
[Cb cap Ac trans]
+16.3 +7.8 57 +17 +18 1013.6 972.0
12 18.08 СВ 2 4000 м дым {ливн. осадки} 6/4 600 м
[Sc Ac trans Ci fib]
+17.4 +9.2 59 +18 +18 1013.6 972.1 +19.4 0.0
15 18.08 ЮВ 1 н/о 5/3 600 м
[Sc Ac trans]
+10.8 +9.2 90 +10 +10 1015.1 972.6
18 18.08 штиль 0 н/о туман 8/8 600 м
[Sc]
+11.1 +9.7 91 +10 +10 1014.6 972.2
21 18.08 штиль 0 500 м туман 10/10 600 м
[Sc]
+8.6 +8.2 97 +8 +8 1015.0 972.2
00 19.08 штиль 0 4000 м туман 8/5 600 м
[Sc Ac trans Ci fib]
+8.0 +7.4 96 +7 +8 1016.9 973.8 +7.9
03 19.08 штиль 0 2000 м дым {туман} 3/0
[Cc]
+16.1 +10.0 67 +16 +25 1015.2 973.5
06 19.08 С 2 10 км дым {туман} 8/6 600 м
[Cb cap Ci fib]
+19.6 +9.5 52 +21 +24 комфорт 1014.6 973.3
09 19.08 С 2 10 км дым 6/5 600 м
[Cb cap Ci fib]
+20.6 +8.7 46 +23 +24 комфорт 1013.7 972.6
12 19.08 СЗ 1 2000 м дым 5/3 1000 м
[Sc Cs]
+18.7 +8.3 51 +20 +20 1013.8 972.5 +21.7
15 19.08 штиль 0 н/о местами туман поземный 3/0
[Ci fib]
+5.9 +4.3 89 +5 +5 1016.0 972.7
18 19.08 штиль 0 н/о туман ясно +2.2 +1.9 98 +1 +1 1017.0 973.0
21 19.08 штиль 0 500 м туман ясно -0.8 -0.9 99 -2 -2 1017.0 972.6
00 20.08 штиль 0 500 м туман ясно +1.7 +1.2 96 0 +3 1016.7 972.8 -1.4
03 20.08 штиль 0 2000 м дым {туман} ясно +13.8 +6.8 63 +14 +23 1015.0 972.9
06 20.08 С 3 2000 м дым {туман} 5/0
[Cs]
+20.4 +6.9 42 +22 +28 комфорт 1013.4 972.3
09 20.08 СВ 3 4000 м дым 10/9 600 м
[Cu Sc]
+19.4 +5.9 41 +20 +20 1013.9 972.7
12 20.08 СВ 2 2000 м дым 10/10 600 м
[Sc]
+16.8 +4.9 45 +17 +17 1015.4 973.7 +21.8
15 20.08 штиль 0 н/о дым 10/4 600 м
[Sc Ac trans Ci fib]
+7.4 +4.4 81 +7 +7 1017.4 974.2
18 20.08 штиль 0 н/о туман 8/0 2000 м
[Ac trans Ci fib]
+4.2 +3.5 95 +3 +3 1018.4 974.7
21 20.08 штиль 0 н/о туман 10/10 300 м
[Sc]
+4.0 +3.3 95 +3 +3 1018.4 974.7
00 21.08 штиль 0 4000 м дым {туман} 9/8 600 м
[Sc Ac trans]
+7.6 +6.7 94 +7 +7 1018.4 975.2 +3.1
03 21.08 В 1 10 км дым {туман} 10/10 600 м
[Cb cap]
+13.4 +10.1 80 +14 +14 1017.7 975.5
06 21.08 СВ 1 10 км дым {туман} 9/9 600 м
[Cu med, cong]
+16.0 +9.9 67 +17 +18 1016.2 974.5
09 21.08 СВ 2 10 км дым 8/6 600 м
[Cb cap Ac trans]
+15.2 +11.3 78 +15 +16 1016.3 974.4
12 21.08 В 1 10 км дым 8/8 600 м
[Cb cap]
+14.9 +8.8 67 +15 +15 1016.7 974.7 +16.8
15 21.08 штиль 0 н/о 5/3 600 м
[Sc Ac trans]
+6.2 +6.0 99 +5 +5 1018.0 974.6
18 21.08 штиль 0 н/о {туман} 4/1 600 м
[Sc Ac trans]
+12.6 +2.3 49 +12 +12 1018.3 974.3
21 21.08 штиль 0 н/о туман 3/3 600 м
[Sc]
+2.1 +1.8 98 +1 +1 1017.7 973.7
00 22.08 штиль 0 500 м туман 10/10 600 м
[Sc]
+4.4 +3.9 97 +3 +3 1017.7 974.0 +1.5
03 22.08 штиль 0 10 км дым {туман} 8/1 600 м
[Cu med, cong Ac As]
+13.6 +9.3 75 +13 +17 1016.0 973.8
06 22.08 ЮЗ 1 50 км {туман} 8/5 600 м
[Cb cap Ac As]
+17.4 +9.4 59 +18 +21 1014.2 972.7
09 22.08 СВ 1 4000 м дым {ливн. осадки} 9/9 600 м
[Cb cap]
+13.2 +12.3 94 +13 +14 1014.7 972.6
12 22.08 штиль 0 10 км дым {ливн. осадки} 6/1 600 м
[Sc Ac trans Cs]
+13.2 +12.7 97 +13 +13 1014.7 972.6 +18.6 5
15 22.08 штиль 0 н/о туман 8/4 1000 м
[Sc Ci fib]
+7.4 +7.0 97 +6 +6 1015.8 972.8
18 22.08 штиль 0 н/о туман 9/8 600 м
[Sc Ac trans]
+6.2 +5.8 97 +5 +5 1015.6 972.3
21 22.08 штиль 0 н/о туман 8/4 600 м
[Sc Ac trans]
+6.0 +5.5 97 +5 +5 1015.5 972.2
00 23.08 штиль 0 2000 м дым {туман} 8/5 600 м
[Sc Ac trans]
+6.9 +6.0 94 +6 +7 1015.2 972.1 +4.5
03 23.08 штиль 0 10 км дым 5/1 600 м
[Cu hum Ci fib]
+13.3 +10.2 81 +13 +20 1013.4 971.3

 

Местоположение метеостанции Стрелка-Чуня (Эвенкия, Россия): широта 61.75 долгота 102.80 высота над уровнем моря 358 м.

В архиве по умолчанию представлена погода в Стрелке-Чуне за последнюю неделю. Архивные данные за месяц целиком и за предыдущие месяцы, начиная с января 2011 года, Вы можете получить, выбрав интересующий диапазон дат из раскрывающегося списка и нажав кнопку "Ввод!".


*Определитесь, кто Вы:
робот инопланетянин человек

Внимание! Время в таблицах - всемирное. Для получения местного времени необходимо прибавить поправку, которая равна 7 ч.

Смотрите также архив погоды в соседних городах и на ближайших метеорологических станциях:

Погода в Муторае (Эвенкия, Россия) (136 км)
Погода в Кербо (Эвенкия, Россия) (139 км)
Погода в Ванаваре (Эвенкия, Россия) (160 км)
Погода в Кислокане (Эвенкия, Россия) (211 км)
Погода в Чемдальске (Красноярский край, Россия) (237 км)
Погода в Ербогачене (Иркутская область, Россия) (281 км)
Погода в Усть-Камо (Эвенкия, Россия) (305 км)
Погода в Туре (Эвенкия, Россия) (311 км)
Погода в Ике (Иркутская область, Россия) (329 км)
Погода в Преображенке (Иркутская область, Россия) (339 км)

Пояснения к столбцам:

Ветер - указаны скорость ветра в м/с - средняя за 10 мин, порывы в срок и между сроками (в фигурных скобках) и направление, откуда дует ветер: С - северный, СВ - северо-восточный, В - восточный, ЮВ - юго-восточный, Ю - южный, ЮЗ - юго-западный, З - западный, СЗ - северо-западный.
Видимость - горизонтальная дальность видимости в метрах или километрах. При видимости от 1 до 10 км при отсутствии осадков обычно наблюдается дымка, при ухудшении видимости до 1 км и менее - туман. В сухую погоду видимость может ухудшаться дымом, пылью или мглою.
Явления - указаны атмосферные явления, наблюдавшиеся в срок или в последний час перед сроком; фигурными скобками обозначены явления, наблюдавшиеся между сроками (за 1-3 часа до срока); квадратными скобками обозначены град или гололедные отложения с указанием их диаметра в мм.
Облачность - указаны через наклонную черту общая и нижняя облачность в баллах и высота нижней границы облаков в метрах; квадратными скобками обозначены формы облаков: Ci - перистые, Cs - перисто-слоистые, Cc - перисто-кучевые, Ac - высококучевые, As - высокослоистые, Sc - слоисто-кучевые, Ns - слоисто-дождевые, Cu - кучевые, Cb - кучево-дождевые. Подробнее классификацию облаков см. в Атласе облаков (PDF).
T - Температура воздуха - температура, измеренная на высоте 2 м над землей.
Td - Температура точки росы - температура, при понижении до которой содержащийся в воздухе водяной пар достигнет насыщения.
f - Относительная влажность воздуха - влажноcть воздуха, измеренная на высоте 2 м над землей.
Te - Эффективная температура - температура, которую ощущает одетый по сезону человек в тени. Характеристика душности погоды. При расчете учитывается влияние влажности воздуха и скорости ветра на теплоощущения человека.
Tes - Эффективная температура на солнце - температура, которую ощущает человек, с поправкой на солнечный нагрев. Характеристика знойности погоды. Зависит от высоты солнца над горизонтом, облачности и скорости ветра. Ночью, в пасмурную погоду, а также при ветре 12 м/с и более поправка равна нулю.
P - Атмосферное давление - приведенное к уровню моря атмосферное давление.
Po - Атмосферное давление - измеренное на уровне метеостанции атмосферное давление.
Tmin - Минимальная температура - минимум температуры воздуха на высоте 2 м над землей.
Tmax - Максимальная температура - максимум температуры воздуха на высоте 2 м над землей.
R - Количество осадков - Количество выпавших осадков за период времени, мм. При наведении курсора мыши на число - период времени, за который выпало указанное количество осадков.
R24 - Количество осадков - Количество выпавших осадков за 24 часа, мм.
S - Снежный покров - Высота снежного покрова, см. При наведении курсора мыши на число - состояние снежного покрова и степень покрытия местности в баллах.